EW4725 Weather Reports


time (UTC)temp
F
wind
direction
speed
knots
gust
knots
rain 1hr
in
rain 24hr
in
rain mn
in
humidity
%
barometer
mb
20260509160917 63 0.0 0.9 0.00 0.00 0.00 85 1013.7
20260509160417 63 0.0 0.0 0.00 0.00 0.00 86 1013.8
20260509155916 63 0.0 0.9 0.00 0.00 0.00 86 1013.8
20260509155417 63 35 0.9 1.7 0.00 0.00 0.00 86 1013.8
20260509154937 63 80 0.9 1.7 0.00 0.00 0.00 86 1013.8
20260509154417 63 0.0 0.9 0.00 0.00 0.00 87 1013.9
20260509153916 62 193 0.9 1.7 0.00 0.00 0.00 86 1013.8
20260509153416 62 148 2.6 4.3 0.00 0.00 0.00 86 1013.8
20260509152917 62 125 0.9 2.6 0.00 0.00 0.00 87 1013.8
20260509152417 62 0.0 0.9 0.00 0.00 0.00 87 1013.8
20260509151916 62 125 0.9 0.9 0.00 0.00 0.00 87 1013.8
20260509151436 62 125 0.9 1.7 0.00 0.00 0.00 88 1013.8
20260509150937 62 125 2.6 3.5 0.00 0.00 0.00 88 1013.8
20260509150416 62 125 1.7 2.6 0.00 0.00 0.00 88 1013.8
20260509145917 62 103 0.9 1.7 0.00 0.00 0.00 88 1013.8
20260509145457 61 0.0 0.0 0.00 0.00 0.00 88 1013.8
20260509144917 61 148 1.7 2.6 0.00 0.00 0.00 88 1013.9
20260509144416 61 103 1.7 3.5 0.00 0.00 0.00 88 1013.9
20260509143916 61 103 0.9 1.7 0.00 0.00 0.00 88 1013.8
20260509143436 61 125 1.7 2.6 0.00 0.00 0.00 88 1013.8
20260509142917 61 148 0.9 1.7 0.00 0.00 0.00 89 1013.8
20260509142416 61 0.0 0.9 0.00 0.00 0.00 89 1013.8
20260509141916 61 0.0 1.7 0.00 0.00 0.00 89 1013.8
20260509141416 61 125 1.7 1.7 0.00 0.00 0.00 89 1013.8
20260509140916 61 125 1.7 2.6 0.00 0.00 0.00 89 1013.6
20260509140416 61 0.0 0.9 0.00 0.00 0.00 89 1013.6
20260509135916 61 0.0 0.0 0.00 0.00 0.00 89 1013.6
20260509135417 61 0.0 0.0 0.00 0.00 0.00 89 1013.6
20260509134917 61 148 0.9 0.9 0.00 0.00 0.00 89 1013.7
20260509134416 61 193 1.7 1.7 0.00 0.00 0.00 89 1013.5
20260509133916 61 58 1.7 2.6 0.00 0.00 0.00 90 1013.5
20260509133417 61 0.0 0.0 0.00 0.00 0.00 89 1013.6
20260509132917 61 80 0.9 1.7 0.00 0.00 0.00 89 1013.5
20260509132417 61 125 0.9 0.9 0.00 0.00 0.00 89 1013.5
20260509131916 61 0.0 0.0 0.00 0.00 0.00 89 1013.3
20260509131416 61 125 0.9 1.7 0.00 0.00 0.00 90 1013.3
20260509130916 61 0.0 0.0 0.00 0.00 0.00 90 1013.2
20260509130416 60 125 0.9 2.6 0.00 0.00 0.00 90 1013.2
20260509125916 60 58 0.9 1.7 0.00 0.00 0.00 90 1013.2
20260509125416 60 103 0.9 0.9 0.00 0.00 0.00 90 1013.2
20260509124916 60 103 0.9 1.7 0.00 0.00 0.00 90 1013.2
20260509124416 60 125 1.7 2.6 0.00 0.00 0.00 90 1013.2
20260509123916 60 0.0 0.9 0.00 0.00 0.00 90 1013.1
20260509123416 60 125 0.9 1.7 0.00 0.00 0.00 90 1013.2
20260509122916 60 125 0.9 1.7 0.00 0.00 0.00 90 1013.1
20260509122416 60 0.0 0.0 0.00 0.00 0.00 90 1013.2
20260509121916 60 125 1.7 1.7 0.00 0.00 0.00 90 1013.1
20260509121416 60 148 0.9 1.7 0.00 0.00 0.00 90 1013.2
20260509120916 60 148 2.6 3.5 0.00 0.00 0.00 90 1013.2
20260509120416 60 148 1.7 1.7 0.00 0.00 0.00 90 1013.3
20260509115916 60 0.0 0.9 0.00 0.00 0.00 90 1013.3
20260509115416 60 0.0 0.0 0.00 0.00 0.00 90 1013.3
20260509114916 60 0.0 0.0 0.00 0.00 0.00 90 1013.3
20260509114416 60 125 0.9 1.7 0.00 0.00 0.00 90 1013.3
20260509113916 60 125 1.7 3.5 0.00 0.00 0.00 90 1013.3
20260509113416 60 0.0 0.0 0.00 0.00 0.00 90 1013.3
20260509112936 60 125 2.6 3.5 0.00 0.00 0.00 90 1013.2
20260509112416 60 148 1.7 2.6 0.00 0.00 0.00 90 1013.2
20260509111916 60 125 0.9 1.7 0.00 0.00 0.00 90 1013.2
20260509111436 60 0.0 0.9 0.00 0.00 0.00 90 1013.2
20260509110916 60 103 0.9 1.7 0.00 0.00 0.00 90 1013.2
20260509110416 60 0.0 0.0 0.00 0.00 0.00 90 1013.2
20260509105916 60 148 0.9 0.9 0.00 0.00 0.00 90 1013.2
20260509105436 60 0.0 0.9 0.00 0.00 0.00 91 1013.2
20260509104916 60 148 1.7 2.6 0.00 0.00 0.00 91 1013.3
20260509104416 60 0.0 0.0 0.00 0.00 0.00 91 1013.3
20260509103916 60 148 0.9 1.7 0.00 0.00 0.00 90 1013.4
20260509103416 60 148 1.7 2.6 0.00 0.00 0.00 90 1013.4
20260509102916 60 148 0.9 1.7 0.00 0.00 0.00 90 1013.3
20260509102416 60 125 0.9 1.7 0.00 0.00 0.00 90 1013.3
20260509101916 60 125 1.7 3.5 0.00 0.00 0.00 91 1013.4
20260509101416 60 170 0.9 1.7 0.00 0.00 0.00 91 1013.5
20260509100936 60 0.0 0.9 0.00 0.00 0.00 91 1013.5
20260509100416 60 148 1.7 2.6 0.00 0.00 0.00 90 1013.4
20260509095916 60 125 0.9 1.7 0.00 0.00 0.00 91 1013.5
20260509095436 60 215 1.7 2.6 0.00 0.00 0.00 90 1013.5
20260509094916 60 125 1.7 1.7 0.00 0.00 0.00 90 1013.6
20260509094416 60 125 1.7 2.6 0.00 0.00 0.00 90 1013.6
20260509093916 60 148 1.7 3.5 0.00 0.00 0.00 90 1013.6
20260509093416 60 0.0 0.9 0.00 0.00 0.00 90 1013.7
20260509092916 60 0.0 0.9 0.00 0.00 0.00 90 1013.7
20260509092416 60 148 1.7 2.6 0.00 0.00 0.00 90 1013.7
20260509091916 60 0.0 0.9 0.00 0.00 0.00 90 1013.7
20260509091416 60 148 0.9 1.7 0.00 0.00 0.00 90 1013.7
20260509090916 61 125 3.5 4.3 0.00 0.00 0.00 90 1013.7
20260509090416 61 125 1.7 2.6 0.00 0.00 0.00 90 1013.7
20260509085916 61 125 3.5 4.3 0.00 0.00 0.00 90 1013.7
20260509085416 61 148 2.6 3.5 0.00 0.00 0.00 89 1013.7
20260509084936 61 148 1.7 2.6 0.00 0.00 0.00 89 1013.7
20260509084416 61 148 0.9 1.7 0.00 0.00 0.00 89 1013.8
20260509083916 61 148 3.5 5.2 0.00 0.00 0.00 89 1013.8
20260509083416 61 148 4.3 6.1 0.00 0.00 0.00 89 1013.8
20260509082916 61 170 0.9 1.7 0.00 0.00 0.00 88 1013.9
20260509082416 62 148 2.6 4.3 0.00 0.00 0.00 88 1013.8
20260509081916 62 125 1.7 2.6 0.00 0.00 0.00 88 1013.9
20260509081416 62 125 3.5 5.2 0.00 0.00 0.00 87 1013.9
20260509080936 62 80 1.7 1.7 0.00 0.00 0.00 88 1013.9
20260509080416 62 0.0 1.7 0.00 0.00 0.00 88 1014.0
20260509075916 62 80 0.9 0.9 0.00 0.00 0.00 88 1014.0
20260509075416 62 0.0 0.0 0.00 0.00 0.00 88 1014.0
20260509074916 62 0.0 1.7 0.00 0.00 0.00 88 1014.2
20260509074416 62 148 0.9 2.6 0.00 0.00 0.00 88 1014.2
20260509073915 61 0.0 0.0 0.00 0.00 0.00 88 1014.2
20260509073416 61 0.0 0.0 0.00 0.00 0.00 88 1014.2
20260509072916 61 170 1.7 2.6 0.00 0.00 0.00 88 1014.2
20260509072416 61 0.0 0.0 0.00 0.00 0.00 88 1014.2
20260509071936 61 0.0 0.9 0.00 0.00 0.00 88 1014.2
20260509071415 61 0.0 0.9 0.00 0.00 0.00 88 1014.2
20260509070916 61 125 0.9 2.6 0.00 0.00 0.00 88 1014.2
20260509070416 61 103 0.9 1.7 0.00 0.00 0.00 89 1014.3
20260509065956 61 0.0 0.0 0.00 0.00 0.00 89 1014.3
20260509065416 61 0.0 0.9 0.00 0.00 0.00 89 1014.3
20260509064916 61 0.0 0.0 0.00 0.00 0.00 89 1014.3
20260509064416 61 0.0 0.0 0.00 0.00 0.00 89 1014.4
20260509063936 61 0.0 0.0 0.00 0.00 0.00 89 1014.4
20260509063416 61 283 0.9 0.9 0.00 0.00 0.00 89 1014.5
20260509062916 61 0.0 0.0 0.00 0.00 0.00 89 1014.5
20260509062416 60 0.0 0.0 0.00 0.00 0.00 89 1014.6
20260509061916 60 238 0.9 1.7 0.00 0.00 0.00 89 1014.5
20260509061416 60 260 0.9 0.9 0.00 0.00 0.00 89 1014.5
20260509060916 60 260 0.9 0.9 0.00 0.00 0.00 89 1014.5
20260509060416 60 350 0.9 0.9 0.00 0.00 0.00 89 1014.6
20260509055916 60 260 1.7 2.6 0.00 0.00 0.00 89 1014.6
20260509055416 60 283 0.9 1.7 0.00 0.00 0.00 90 1014.6
20260509054916 60 0.0 0.9 0.00 0.00 0.00 90 1014.6
20260509054416 60 283 1.7 1.7 0.00 0.00 0.00 90 1014.5
20260509053916 60 283 0.9 1.7 0.00 0.00 0.00 90 1014.5
20260509053416 60 283 0.9 0.9 0.00 0.00 0.00 90 1014.5
20260509052916 60 0.0 0.9 0.00 0.00 0.00 90 1014.5
20260509052416 60 283 0.9 1.7 0.00 0.00 0.00 90 1014.5
20260509051916 60 283 0.9 1.7 0.00 0.00 0.00 90 1014.5
20260509051416 60 0.0 0.9 0.00 0.00 0.00 89 1014.5
20260509050916 60 305 0.9 0.9 0.00 0.00 0.00 89 1014.5
20260509050416 60 0.0 0.9 0.00 0.00 0.00 89 1014.4
20260509045936 60 260 1.7 2.6 0.00 0.00 0.00 89 1014.4
20260509045436 60 260 0.9 1.7 0.00 0.00 0.00 89 1014.3
20260509044936 60 260 1.7 2.6 0.00 0.00 0.00 89 1014.4
20260509044436 60 260 1.7 2.6 0.00 0.00 0.00 89 1014.4
20260509043916 60 260 2.6 3.5 0.00 0.00 0.00 89 1014.4
20260509043416 61 260 2.6 3.5 0.00 0.00 0.00 89 1014.4
20260509042916 61 305 2.6 3.5 0.00 0.00 0.00 89 1014.3
20260509042416 61 305 1.7 3.5 0.00 0.00 0.00 89 1014.3
20260509041916 61 305 4.3 6.1 0.00 0.00 0.00 89 1014.2
20260509041416 61 305 2.6 2.6 0.00 0.00 0.00 89 1014.2
20260509040916 61 305 3.5 5.2 0.00 0.00 0.00 89 1014.1
20260509040416 61 283 3.5 4.3 0.00 0.00 0.00 89 1014.1
20260509035916 61 283 1.7 3.5 0.00 0.00 0.00 89 1014.0
20260509035416 61 305 2.6 2.6 0.00 0.00 0.00 89 1013.9
20260509034916 61 305 1.7 3.5 0.00 0.00 0.00 89 1013.9
20260509034416 61 283 2.6 3.5 0.00 0.00 0.00 89 1013.8
20260509033916 61 305 1.7 3.5 0.00 0.00 0.00 89 1013.8
20260509033416 61 283 3.5 5.2 0.00 0.00 0.00 88 1013.8
20260509032916 61 283 1.7 4.3 0.00 0.00 0.00 88 1013.7
20260509032416 61 260 1.7 4.3 0.00 0.00 0.00 88 1013.7
20260509031916 61 260 0.9 3.5 0.00 0.00 0.00 88 1013.7
20260509031416 61 283 2.6 5.2 0.00 0.00 0.00 88 1013.7
20260509030916 61 283 3.5 5.2 0.00 0.00 0.00 88 1013.6
20260509030416 61 305 4.3 5.2 0.00 0.00 0.00 87 1013.5
20260509025916 61 283 2.6 3.5 0.00 0.00 0.00 87 1013.5
20260509025416 62 305 3.5 6.1 0.00 0.00 0.00 87 1013.4
20260509024916 62 283 3.5 4.3 0.00 0.00 0.00 87 1013.4
20260509024416 62 260 5.2 7.8 0.00 0.00 0.00 86 1013.3
20260509023916 62 283 3.5 6.1 0.00 0.00 0.00 86 1013.3
20260509023416 62 260 2.6 4.3 0.00 0.00 0.00 85 1013.3
20260509022936 63 283 3.5 7.8 0.00 0.00 0.00 85 1013.2
20260509022436 63 305 6.1 8.7 0.00 0.00 0.00 85 1013.1
20260509021916 63 283 5.2 7.8 0.00 0.00 0.00 84 1013.2
20260509021416 64 283 4.3 7.0 0.00 0.00 0.00 83 1013.2
20260509020915 64 283 6.1 7.8 0.00 0.00 0.00 82 1013.1
20260509020416 64 260 4.3 5.2 0.00 0.00 0.00 82 1013.1
20260509015915 65 283 5.2 8.7 0.00 0.00 0.00 81 1013.1
20260509015436 65 283 4.3 7.0 0.00 0.00 0.00 81 1013.0
20260509014916 65 305 2.6 4.3 0.00 0.00 0.00 80 1013.0
20260509014416 66 305 3.5 5.2 0.00 0.00 0.00 80 1012.9
20260509013915 66 305 2.6 3.5 0.00 0.00 0.00 80 1013.0
20260509013416 66 283 5.2 8.7 0.00 0.00 0.00 79 1013.0
20260509012916 67 305 6.1 8.7 0.00 0.00 0.00 78 1013.0
20260509012436 67 283 5.2 9.6 0.00 0.00 0.00 78 1013.0
20260509011915 67 283 7.0 9.6 0.00 0.00 0.00 77 1013.1
20260509011416 67 283 5.2 9.6 0.00 0.00 0.00 77 1013.0
20260509010916 68 283 5.2 8.7 0.00 0.00 0.00 77 1013.0
20260509010416 68 305 4.3 6.1 0.00 0.00 0.00 76 1012.9
20260509005936 68 283 5.2 7.8 0.00 0.00 0.00 75 1012.9
20260509005415 69 305 4.3 7.0 0.00 0.00 0.00 74 1013.0
20260509004915 69 260 4.3 7.0 0.00 0.00 0.00 74 1013.0
20260509004415 69 260 6.1 9.6 0.00 0.00 0.00 73 1013.0
20260509003915 70 283 5.2 8.7 0.00 0.00 0.00 72 1013.0
20260509003415 70 283 5.2 7.0 0.00 0.00 0.00 71 1013.0
20260509002915 70 283 4.3 7.0 0.00 0.00 0.00 71 1012.9
20260509002436 70 283 7.0 9.6 0.00 0.00 0.00 71 1012.9
20260509001916 70 283 3.5 5.2 0.00 0.00 0.00 71 1012.9
20260509001415 71 260 7.0 9.6 0.00 0.00 0.00 70 1013.0
20260509000915 71 260 5.2 7.0 0.00 0.00 0.00 70 1013.0
20260509000418 71 305 4.3 7.8 0.00 0.00 0.00 70 1013.0
20260508235915 71 305 3.5 5.2 0.00 0.00 0.00 69 1013.0
20260508235415 72 283 4.3 7.0 0.00 0.00 0.00 69 1013.0
20260508234916 72 260 4.3 6.1 0.00 0.00 0.00 67 1013.0
20260508234415 72 305 3.5 6.1 0.00 0.00 0.00 68 1013.0
20260508233916 72 305 3.5 7.0 0.00 0.00 0.00 67 1013.0
20260508233416 73 283 4.3 7.8 0.00 0.00 0.00 67 1013.0
20260508232916 73 305 3.5 7.0 0.00 0.00 0.00 67 1013.0
20260508232415 73 260 4.3 7.0 0.00 0.00 0.00 66 1013.0
20260508231915 73 283 5.2 6.1 0.00 0.00 0.00 66 1013.1
20260508231416 73 260 6.1 7.8 0.00 0.00 0.00 66 1013.2
20260508230935 73 283 4.3 7.0 0.00 0.00 0.00 66 1013.2
20260508230415 73 283 5.2 7.8 0.00 0.00 0.00 65 1013.3
20260508225916 74 260 3.5 5.2 0.00 0.00 0.00 65 1013.3
20260508225416 74 260 2.6 4.3 0.00 0.00 0.00 65 1013.3
20260508224935 74 148 3.5 6.1 0.00 0.00 0.00 65 1013.3
20260508224416 74 260 5.2 7.8 0.00 0.00 0.00 64 1013.5
20260508223915 74 170 2.6 5.2 0.00 0.00 0.00 64 1013.5
20260508223435 74 80 1.7 3.5 0.00 0.00 0.00 66 1013.6
20260508222915 73 170 4.3 7.0 0.00 0.00 0.00 65 1013.7
20260508222435 73 170 1.7 5.2 0.00 0.00 0.00 65 1013.8
20260508221915 73 170 2.6 4.3 0.00 0.00 0.00 65 1013.8
20260508221415 73 170 1.7 4.3 0.00 0.00 0.00 67 1013.9
20260508220920 73 170 3.5 5.2 0.00 0.00 0.00 66 1014.0
20260508220436 73 193 4.3 7.0 0.00 0.00 0.00 66 1014.1
20260508215915 72 148 3.5 7.0 0.00 0.00 0.00 67 1014.2
20260508215415 72 170 4.3 5.2 0.00 0.00 0.00 66 1014.3
20260508214915 72 148 4.3 7.8 0.00 0.00 0.00 67 1014.3
20260508214415 72 215 3.5 7.0 0.00 0.00 0.00 67 1014.3
20260508213915 73 260 2.6 7.0 0.00 0.00 0.00 67 1014.3
20260508213415 73 148 4.3 5.2 0.00 0.00 0.00 66 1014.4
20260508212915 73 260 2.6 4.3 0.00 0.00 0.00 66 1014.4
20260508212435 73 170 2.6 4.3 0.00 0.00 0.00 66 1014.4
20260508211915 73 238 3.5 6.1 0.00 0.00 0.00 66 1014.4
20260508211415 73 170 3.5 5.2 0.00 0.00 0.00 67 1014.5
20260508210915 73 215 2.6 4.3 0.00 0.00 0.00 67 1014.6
20260508210415 72 238 2.6 4.3 0.00 0.00 0.00 68 1014.6
20260508205915 73 283 4.3 6.1 0.00 0.00 0.00 66 1014.7
20260508205415 73 238 3.5 6.1 0.00 0.00 0.00 68 1014.7
20260508204917 73 148 1.7 4.3 0.00 0.00 0.00 67 1014.7
20260508204435 73 238 3.5 5.2 0.00 0.00 0.00 67 1014.7
20260508203917 72 260 3.5 6.1 0.00 0.00 0.00 68 1014.8
20260508203417 72 148 2.6 4.3 0.00 0.00 0.00 69 1014.9
20260508202917 72 148 2.6 4.3 0.00 0.00 0.00 68 1015.0
20260508202415 72 125 1.7 2.6 0.00 0.00 0.00 68 1015.0
20260508201917 72 238 5.2 9.6 0.00 0.00 0.00 68 1015.0
20260508201417 71 170 1.7 3.5 0.00 0.00 0.00 70 1015.1
20260508200917 71 215 3.5 5.2 0.00 0.00 0.00 71 1015.2
20260508200417 70 148 1.7 2.6 0.00 0.00 0.00 71 1015.3
20260508195917 70 148 3.5 6.1 0.00 0.00 0.00 72 1015.4
20260508195418 70 170 1.7 3.5 0.00 0.00 0.00 72 1015.4
20260508194917 69 35 0.9 1.7 0.00 0.00 0.00 73 1015.4
20260508194417 69 283 3.5 5.2 0.00 0.00 0.00 73 1015.4
20260508193916 69 283 2.6 3.5 0.00 0.00 0.00 74 1015.4
20260508193437 69 260 0.9 1.7 0.00 0.00 0.00 73 1015.5
20260508192917 69 260 4.3 6.1 0.00 0.00 0.00 73 1015.7
20260508192437 69 283 1.7 3.5 0.00 0.00 0.00 75 1015.6
20260508191917 69 260 3.5 5.2 0.00 0.00 0.00 74 1015.7
20260508191417 68 0.0 0.9 0.00 0.00 0.00 75 1015.8
20260508190917 68 58 1.7 1.7 0.00 0.00 0.00 75 1015.7
20260508190417 68 0.0 0.9 0.00 0.00 0.00 76 1015.9
20260508185917 68 260 3.5 5.2 0.00 0.00 0.00 75 1016.0
20260508185417 68 238 1.7 2.6 0.00 0.00 0.00 75 1016.0
20260508184917 68 283 1.7 2.6 0.00 0.00 0.00 76 1016.0
20260508184417 67 283 1.7 2.6 0.00 0.00 0.00 77 1016.1
20260508183937 67 0.0 0.9 0.00 0.00 0.00 78 1016.1
20260508183417 66 58 1.7 2.6 0.00 0.00 0.00 78 1016.2
20260508182917 66 0.0 0.9 0.00 0.00 0.00 79 1016.2
20260508182417 66 148 2.6 3.5 0.00 0.00 0.00 80 1016.2
20260508181917 66 0.0 0.9 0.00 0.00 0.00 80 1016.2
20260508181437 65 260 0.9 1.7 0.00 0.00 0.00 80 1016.2
20260508180917 65 0.0 0.0 0.00 0.00 0.00 81 1016.2
20260508180417 65 125 1.7 3.5 0.00 0.00 0.00 81 1016.2
20260508175917 65 215 1.7 2.6 0.00 0.00 0.00 80 1016.3
20260508175417 65 148 1.7 3.5 0.00 0.00 0.00 81 1016.3
20260508174917 65 0.0 0.0 0.00 0.00 0.00 83 1016.3
20260508174417 64 0.0 0.0 0.00 0.00 0.00 83 1016.4
20260508173917 64 0.0 0.9 0.00 0.00 0.00 83 1016.4
20260508173417 64 283 2.6 4.3 0.00 0.00 0.00 83 1016.5
20260508172917 64 283 0.9 1.7 0.00 0.00 0.00 82 1016.5
20260508172417 64 0.0 1.7 0.00 0.00 0.00 83 1016.6
20260508171937 64 215 0.9 0.9 0.00 0.00 0.00 84 1016.5
20260508171417 64 125 0.9 2.6 0.00 0.00 0.00 83 1016.4
20260508170937 64 238 2.6 4.3 0.00 0.00 0.00 83 1016.4
20260508170417 64 0.0 1.7 0.00 0.00 0.00 84 1016.4
20260508165917 64 148 0.9 1.7 0.00 0.00 0.00 84 1016.4
20260508165417 64 103 0.9 1.7 0.00 0.00 0.00 83 1016.4
20260508164917 63 0.0 0.0 0.00 0.00 0.00 84 1016.4
20260508164417 64 148 1.7 2.6 0.00 0.00 0.00 84 1016.4
20260508163917 63 148 0.9 1.7 0.00 0.00 0.00 85 1016.4
20260508163417 63 0.0 0.0 0.00 0.00 0.00 85 1016.4
20260508162917 63 148 0.9 0.9 0.00 0.00 0.00 86 1016.3
20260508162417 63 125 2.6 3.5 0.00 0.00 0.00 85 1016.4
20260508161917 63 125 1.7 2.6 0.00 0.00 0.00 85 1016.4
20260508161417 63 125 0.9 1.7 0.00 0.00 0.00 86 1016.4